Wright-Patt AFB, OH

1:42 PM EDT on July 22, 2017 (GMT -0400)
Wright-Patterson Air Force Base

Weather History for KFFO - October, 2012

Change the Weather History Date:

Saturday, October 6, 2012

  Actual Average Record
Temperature  
Mean Temperature 46 °F -  
Max Temperature 56 °F 67 °F 87 °F (2007)
Min Temperature 37 °F 44 °F 32 °F (2004)
Degree Days  
Heating Degree Days 18    
Moisture  
Dew Point 33 °F    
Average Humidity 63    
Maximum Humidity 87    
Minimum Humidity 29    
Precipitation  
Precipitation 0.42 in - - ()
Sea Level Pressure  
Sea Level Pressure 30.09 in    
Wind  
Wind Speed 7 mph (WNW)    
Max Wind Speed 12 mph    
Max Gust Speed -    
Visibility 9 miles    
Events Rain    
Averages and records for this station are not official NWS values.
T = Trace of Precipitation, MM = Missing Value Source: NWS Daily Summary

Daily Weather History Graph

Daily Weather History Graph

Search for Another Location

Airport or City:

Trip Planner

Search our weather history database for the weather conditions in past years. The results will help you decide how hot, cold, wet, or windy it might be!

Date:

Astronomy

Oct. 06, 2012 Rise Set
Actual Time 7:37 AM EDT 7:09 PM EDT
Civil Twilight 7:10 AM EDT 7:36 PM EDT
Nautical Twilight 6:39 AM EDT 8:08 PM EDT
Astronomical Twilight 6:08 AM EDT 8:39 PM EDT
Moon 11:25 PM EDT (10/6) 1:31 PM EDT (10/6)
Length of Visible Light 12h 25m
Length of Day
11h 31m
Waning Gibbous, 65% of the Moon is Illuminated
Oct 6
Waning Gibbous
Oct 8
Last Quarter
Oct 15
New
Oct 21
First Quarter
Oct 29
Full

Hourly Weather History & Observations

Time (EDT) Temp. Windchill Dew Point Humidity Pressure Visibility Wind Dir Wind Speed Gust Speed Precip Events Conditions
12:41 AM 42.8 °F 39.3 °F 39.2 °F 87% 30.04 in 3.0 mi NW 5.8 mph - N/A Rain Heavy Rain
12:55 AM 42.8 °F 39.3 °F 38.7 °F 85% 30.05 in 3.0 mi WNW 5.8 mph - 0.20 in Rain Rain
1:55 AM 42.6 °F 36.8 °F 38.5 °F 85% 30.04 in 6.0 mi NW 10.4 mph - 0.21 in Rain Light Rain
2:14 AM 42.8 °F 40.1 °F 39.2 °F 87% 30.03 in 8.0 mi NNW 4.6 mph - N/A   Light Drizzle
2:23 AM 42.8 °F 38.0 °F 39.2 °F 87% 30.03 in 9.0 mi NNW 8.1 mph - N/A   Overcast
2:55 AM 42.8 °F 38.0 °F 38.3 °F 84% 30.06 in 10.0 mi WNW 8.1 mph - 0.01 in   Overcast
2:56 AM 42.8 °F 38.6 °F 37.4 °F 81% 30.06 in 10.0 mi WNW 6.9 mph - N/A   Overcast
3:20 AM 42.8 °F 38.6 °F 37.4 °F 81% 30.05 in 10.0 mi WNW 6.9 mph - N/A   Overcast
3:55 AM 42.4 °F 38.8 °F 37.0 °F 81% 30.05 in 10.0 mi West 5.8 mph - N/A   Overcast
4:55 AM 41.4 °F 37.6 °F 36.3 °F 82% 30.06 in 10.0 mi West 5.8 mph - N/A   Scattered Clouds
5:55 AM 40.1 °F 36.1 °F 34.9 °F 82% 30.07 in 10.0 mi West 5.8 mph - N/A   Partly Cloudy
6:55 AM 38.5 °F 35.0 °F 33.1 °F 81% 30.09 in 10.0 mi West 4.6 mph - N/A   Clear
7:55 AM 37.6 °F 35.1 °F 32.2 °F 81% 30.12 in 10.0 mi WSW 3.5 mph - N/A   Partly Cloudy
8:55 AM 39.7 °F 34.9 °F 32.4 °F 75% 30.13 in 10.0 mi West 6.9 mph - N/A   Partly Cloudy
9:55 AM 42.8 °F 38.6 °F 32.7 °F 68% 30.14 in 10.0 mi West 6.9 mph - N/A   Partly Cloudy
10:55 AM 46.2 °F 43.3 °F 33.4 °F 61% 30.15 in 10.0 mi WSW 5.8 mph - N/A   Scattered Clouds
11:55 AM 50.0 °F - 31.8 °F 50% 30.14 in 10.0 mi WSW 10.4 mph - N/A   Scattered Clouds
12:55 PM 52.0 °F - 30.6 °F 44% 30.13 in 10.0 mi WSW 9.2 mph - N/A   Scattered Clouds
1:55 PM 54.3 °F - 29.8 °F 39% 30.11 in 10.0 mi WSW 10.4 mph - N/A   Scattered Clouds
2:55 PM 55.2 °F - 28.2 °F 36% 30.09 in 10.0 mi WSW 10.4 mph - N/A   Scattered Clouds
3:55 PM 55.8 °F - 26.2 °F 32% 30.08 in 10.0 mi West 8.1 mph - N/A   Scattered Clouds
4:55 PM 56.3 °F - 24.4 °F 29% 30.08 in 10.0 mi WNW 11.5 mph - N/A   Scattered Clouds
5:55 PM 55.2 °F - 23.0 °F 29% 30.09 in 10.0 mi West 8.1 mph - N/A   Scattered Clouds
6:55 PM 52.0 °F - 26.4 °F 37% 30.11 in 10.0 mi NW 9.2 mph - N/A   Scattered Clouds
7:55 PM 50.0 °F - 28.9 °F 44% 30.13 in 10.0 mi WNW 9.2 mph - N/A   Mostly Cloudy
8:55 PM 48.9 °F - 30.0 °F 48% 30.15 in 10.0 mi NW 10.4 mph - N/A   Mostly Cloudy
9:55 PM 48.2 °F - 30.0 °F 49% 30.14 in 10.0 mi NW 9.2 mph - N/A   Overcast
10:55 PM 46.8 °F - 29.8 °F 52% 30.16 in 10.0 mi North 8.1 mph - N/A   Overcast
11:55 PM 46.2 °F 44.1 °F 30.6 °F 54% 30.16 in 10.0 mi North 4.6 mph - N/A   Overcast